Wind_Speed
71 73 73 73 74 73 73 73 72 70 67 65 65 65 67 67 67 66 64 63 62 62 61 62 63 64 65 66 67 68 69 69 70 71 71 72 73 75
69 70 70 71 73 73 72 72 72 71 67 64 65 66 66 66 66 65 64 63 63 63 63 63 64 65 67 68 69 70 71 71 72 73 74 74 75 76
68 69 69 70 71 71 71 71 71 70 67 64 65 65 65 65 64 65 64 63 63 63 64 65 66 67 68 70 71 72 73 73 74 75 75 76 77 78
69 69 69 70 69 69 69 69 69 68 67 64 64 64 64 64 64 64 63 63 63 64 65 66 67 68 69 71 72 73 73 74 75 76 77 78 79 80
69 69 68 68 67 67 67 67 67 67 66 65 63 63 62 62 63 63 63 63 64 65 66 67 68 69 70 71 72 73 74 75 76 77 78 79 80 81
69 68 67 66 66 66 66 65 65 65 64 63 62 61 61 62 63 62 63 64 65 66 66 67 68 69 70 71 73 73 74 75 76 77 78 79 81 82
68 67 66 65 65 65 64 63 63 63 62 62 62 62 61 62 63 63 63 64 64 65 66 67 68 68 69 70 71 72 73 75 76 77 78 79 80 81
65 64 63 63 63 63 62 61 61 61 61 61 61 60 60 62 63 64 64 65 64 64 66 66 67 67 68 69 70 71 73 74 75 76 77 77 78 80
61 60 60 59 60 59 59 60 60 60 60 60 60 59 60 61 62 63 64 64 63 64 65 65 66 66 67 67 68 69 71 72 73 74 74 75 75 76
57 56 55 55 56 57 57 58 58 59 60 60 59 59 60 61 62 63 64 64 63 63 65 64 64 65 65 65 65 66 68 69 70 71 71 71 72 73
52 51 52 52 53 54 54 55 55 56 57 58 59 59 59 60 61 62 63 63 61 60 62 63 62 63 62 61 61 62 64 66 67 67 67 68 69 71
48 48 49 50 51 52 52 52 52 53 55 55 56 56 57 57 59 60 60 60 59 58 58 60 60 62 60 57 56 57 59 61 63 64 65 66 67 68
45 46 46 47 48 49 50 50 51 52 53 53 53 53 53 54 55 56 57 57 56 55 56 58 58 59 60 56 51 53 55 57 59 61 63 64 64 65
42 43 44 45 46 47 47 48 49 50 50 50 50 50 50 51 52 53 53 54 54 53 54 56 57 57 57 54 50 49 51 54 57 59 60 60 60 60
41 42 43 43 44 44 45 45 46 46 45 45 44 45 47 48 49 50 51 51 50 50 52 54 55 55 54 52 49 48 49 50 54 56 56 56 54 52
41 41 42 42 42 42 43 43 43 42 42 41 42 43 44 45 46 47 47 47 47 47 49 51 52 52 50 49 49 47 48 49 50 52 52 49 45 43
41 40 41 41 41 41 42 41 40 40 39 40 41 41 42 43 44 44 44 45 45 44 44 46 48 48 48 47 46 46 47 48 47 46 45 41 38 37
38 38 38 38 38 38 38 38 38 38 39 39 40 40 41 41 41 41 42 43 42 41 42 43 44 44 43 43 45 46 46 46 43 41 39 36 32 28
35 35 35 35 35 35 35 35 36 37 37 38 38 38 38 38 38 39 40 40 39 39 39 41 42 42 40 37 38 43 44 41 38 35 33 30 25 22
34 34 34 34 34 33 33 34 35 35 36 36 36 36 36 36 36 37 37 37 37 37 37 38 39 39 37 36 35 36 40 37 33 29 27 24 20 18
33 33 33 32 32 32 32 32 33 33 33 33 33 33 33 33 34 34 34 35 35 35 35 34 35 36 35 34 32 32 33 32 28 25 22 19 16 16
30 30 30 30 30 30 30 31 31 31 31 31 31 31 31 31 31 32 32 32 32 32 31 30 31 31 31 31 30 29 28 26 24 21 18 15 15 16
29 29 28 28 29 29 29 29 29 29 29 29 28 28 28 29 29 29 29 29 28 27 27 27 27 28 28 29 28 26 23 20 18 15 12 13 15 19
Wind_Direction
280 279 280 280 280 280 280 281 282 282 282 282 282 282 282 281 279 278 277 276 275 275 274 274 274 274 274 273 273 273 272 272 271 270 269 268 266 265
280 279 279 279 278 279 279 280 280 282 282 281 281 280 280 280 279 278 277 276 275 275 275 275 275 275 275 274 274 274 273 272 272 271 271 270 268 266
280 279 279 278 278 278 278 279 280 280 281 280 280 279 279 278 277 277 277 276 276 276 276 276 276 276 276 275 275 275 274 273 273 272 272 271 270 268
280 280 279 278 278 278 278 278 278 278 279 278 278 278 277 277 276 277 277 277 276 276 277 277 277 277 276 276 276 275 275 274 274 274 273 272 271 269
280 280 279 278 278 278 277 277 277 277 278 278 277 277 276 276 276 276 276 276 276 277 277 277 277 277 277 277 277 276 276 276 276 275 274 274 272 271
280 279 278 278 278 277 277 277 277 277 277 277 277 276 275 275 275 276 275 276 276 277 277 277 277 277 278 278 278 278 278 277 277 276 276 275 274 273
279 278 278 277 276 276 277 277 277 277 277 276 276 276 275 275 275 275 275 276 276 277 278 278 278 278 279 279 279 279 279 279 279 278 277 277 276 274
279 278 277 276 276 275 275 275 276 276 276 276 276 276 276 275 275 275 275 276 276 277 278 278 279 279 279 279 280 280 280 280 280 279 279 278 278 276
279 278 277 276 276 275 275 275 275 275 275 275 276 276 276 276 276 276 276 277 277 277 277 279 279 280 280 280 281 281 281 280 280 280 280 279 279 278
279 278 277 277 276 276 276 276 277 277 276 276 276 276 276 276 276 277 277 277 278 278 279 279 280 280 280 282 283 283 282 282 281 281 281 281 281 279
280 279 278 277 277 277 277 277 277 277 277 277 277 277 277 277 277 278 278 278 278 279 280 281 281 281 282 284 284 284 283 283 283 284 284 283 283 282
281 280 279 278 278 278 279 279 278 278 278 279 279 279 279 279 278 278 279 279 280 280 281 282 283 283 284 285 285 284 284 284 285 286 286 286 285 284
282 281 281 281 281 280 281 281 280 280 280 281 280 280 280 279 279 279 280 281 282 283 283 283 285 286 288 288 286 286 285 285 286 287 287 287 287 286
284 283 283 283 283 283 283 283 282 282 282 281 281 280 280 280 280 281 282 283 284 285 286 287 288 289 290 290 290 288 288 288 288 289 288 288 288 287
286 286 286 285 285 285 285 285 285 286 284 282 281 281 281 281 282 282 283 284 286 288 289 289 291 292 293 293 293 292 291 290 291 291 290 290 289 287
289 288 288 286 286 286 287 288 288 288 286 285 284 283 283 283 283 283 284 286 288 289 290 291 293 294 295 295 295 295 294 294 294 293 292 292 290 286
290 290 289 288 287 287 288 288 288 289 288 287 286 285 285 285 285 285 287 288 290 290 290 292 294 295 297 297 296 296 297 298 297 295 294 292 289 286
292 292 291 290 290 290 290 290 290 290 290 289 288 287 287 286 287 288 289 291 292 292 293 293 294 295 297 298 298 298 299 301 299 297 295 293 288 280
295 295 295 294 293 293 292 291 291 292 291 291 290 289 288 288 289 290 292 293 293 294 295 296 296 298 299 297 297 299 301 302 300 298 295 291 283 269
296 296 296 297 296 295 294 294 294 294 293 292 292 291 291 291 292 293 294 294 295 296 297 298 298 300 301 302 301 300 301 302 301 298 293 285 273 256
298 297 298 299 299 298 297 297 296 296 295 294 294 294 294 294 295 295 296 296 297 298 299 299 300 302 304 305 305 303 302 302 301 296 288 275 259 235
301 301 301 301 301 301 301 300 299 299 298 297 297 296 296 297 298 298 299 298 299 301 301 301 302 304 306 308 308 307 304 302 299 293 280 259 232 211
305 305 304 303 303 303 303 303 302 302 301 300 299 298 299 300 301 302 302 302 303 304 304 303 304 307 308 310 311 310 307 304 298 287 263 233 207 193
Height
5613 5609 5604 5601 5596 5592 5588 5584 5580 5578 5579 5578 5573 5569 5563 5559 5556 5554 5553 5551 5550 5549 5547 5546 5545 5544 5543 5543 5542 5541 5541 5541 5541 5542 5543 5544 5545 5547
5594 5589 5585 5581 5576 5572 5568 5565 5560 5557 5557 5559 5554 5549 5544 5540 5536 5534 5533 5531 5530 5529 5527 5526 5525 5523 5522 5521 5519 5518 5518 5517 5518 5518 5518 5519 5520 5521
5574 5569 5565 5560 5556 5552 5548 5544 5541 5537 5536 5538 5533 5529 5525 5521 5517 5514 5513 5512 5510 5508 5507 5505 5503 5502 5500 5498 5496 5495 5494 5493 5493 5493 5493 5493 5493 5495
5554 5548 5545 5539 5536 5531 5527 5524 5521 5517 5515 5516 5514 5509 5505 5501 5498 5495 5494 5492 5490 5488 5486 5484 5482 5479 5477 5475 5473 5471 5469 5468 5467 5467 5467 5467 5466 5466
5533 5528 5524 5518 5515 5511 5507 5504 5501 5498 5495 5495 5494 5490 5486 5482 5478 5477 5474 5472 5470 5468 5465 5463 5460 5457 5454 5452 5449 5447 5445 5443 5442 5440 5439 5438 5437 5436
5512 5507 5503 5498 5494 5490 5487 5485 5481 5478 5476 5474 5473 5471 5467 5463 5459 5457 5455 5452 5450 5447 5444 5441 5438 5435 5432 5429 5426 5423 5420 5418 5415 5413 5411 5409 5408 5406
5490 5486 5482 5477 5474 5470 5468 5466 5462 5460 5457 5455 5454 5451 5449 5444 5440 5437 5435 5432 5430 5427 5423 5420 5417 5415 5410 5406 5402 5398 5395 5392 5389 5386 5383 5381 5378 5376
5469 5465 5460 5457 5454 5451 5449 5446 5444 5442 5439 5436 5434 5432 5429 5424 5420 5417 5415 5413 5413 5408 5402 5401 5396 5394 5389 5384 5380 5376 5371 5367 5363 5359 5356 5352 5349 5345
5448 5444 5441 5438 5434 5432 5430 5428 5426 5423 5421 5418 5416 5413 5409 5405 5401 5398 5395 5393 5392 5388 5382 5381 5376 5373 5368 5363 5359 5353 5348 5343 5338 5334 5330 5326 5321 5316
5429 5426 5423 5420 5416 5414 5412 5410 5407 5404 5401 5398 5398 5395 5390 5386 5382 5379 5375 5373 5372 5368 5361 5360 5356 5352 5348 5344 5338 5331 5324 5319 5314 5309 5304 5299 5294 5288
5411 5408 5405 5403 5399 5396 5395 5394 5391 5387 5382 5379 5377 5375 5372 5367 5363 5359 5356 5354 5353 5350 5342 5338 5336 5331 5329 5325 5318 5309 5302 5296 5290 5285 5279 5274 5268 5261
5395 5392 5389 5386 5383 5380 5378 5376 5374 5370 5365 5362 5359 5356 5353 5349 5344 5340 5338 5335 5333 5332 5325 5318 5315 5309 5309 5308 5299 5291 5282 5275 5268 5262 5256 5250 5243 5234
5381 5377 5374 5370 5368 5365 5362 5360 5357 5352 5349 5345 5342 5339 5335 5332 5327 5324 5320 5317 5315 5312 5306 5300 5296 5290 5286 5286 5282 5273 5264 5256 5249 5242 5234 5226 5219 5211
5366 5363 5360 5356 5353 5350 5347 5344 5340 5336 5332 5329 5326 5323 5319 5315 5312 5308 5304 5301 5297 5294 5288 5281 5277 5272 5266 5264 5262 5256 5247 5238 5229 5222 5214 5206 5198 5190
5353 5350 5346 5342 5339 5335 5332 5329 5325 5320 5317 5314 5311 5307 5304 5301 5297 5293 5289 5285 5282 5277 5271 5265 5259 5254 5248 5244 5241 5237 5230 5222 5212 5202 5194 5186 5179 5171
5339 5336 5332 5329 5325 5322 5318 5315 5311 5306 5303 5300 5297 5294 5290 5287 5283 5279 5275 5271 5268 5264 5256 5249 5243 5238 5233 5228 5222 5218 5211 5204 5197 5186 5176 5169 5162 5154
5327 5324 5319 5316 5312 5309 5305 5301 5298 5294 5290 5287 5284 5280 5277 5273 5269 5265 5262 5258 5254 5250 5245 5237 5230 5224 5218 5212 5207 5201 5194 5187 5179 5170 5161 5155 5150 5142
5315 5311 5307 5303 5300 5296 5293 5289 5286 5282 5279 5275 5271 5268 5264 5261 5257 5253 5249 5244 5240 5236 5231 5225 5218 5212 5207 5201 5193 5185 5180 5172 5165 5157 5148 5142 5138 5133
5304 5300 5296 5292 5288 5285 5282 5278 5275 5271 5267 5264 5260 5256 5252 5249 5245 5241 5236 5232 5228 5224 5219 5212 5206 5200 5195 5191 5185 5173 5166 5160 5153 5147 5139 5133 5129 5126
5293 5290 5286 5282 5278 5275 5271 5268 5264 5260 5257 5253 5249 5245 5242 5238 5234 5230 5225 5221 5217 5213 5208 5201 5195 5188 5183 5178 5174 5167 5155 5149 5144 5138 5132 5127 5123 5121
5284 5280 5276 5273 5269 5265 5261 5258 5254 5250 5246 5242 5239 5235 5232 5228 5224 5220 5215 5211 5206 5202 5197 5192 5185 5179 5173 5168 5163 5158 5149 5141 5136 5131 5126 5122 5120 5119
5275 5271 5268 5264 5260 5256 5253 5249 5245 5241 5237 5233 5230 5226 5222 5218 5214 5210 5206 5201 5197 5192 5187 5182 5177 5171 5165 5160 5154 5149 5143 5136 5131 5126 5122 5120 5118 5120
5268 5264 5260 5256 5252 5249 5245 5240 5236 5233 5229 5225 5221 5218 5214 5210 5206 5201 5197 5192 5188 5184 5179 5174 5169 5164 5158 5153 5147 5142 5137 5131 5127 5124 5122 5120 5120 5121